Location: Palmerston North
(40.3500°S, 175.6170°E)
Time: 13:41:38
(UTC+13:00)

Terra - Pass Details

Date: 24 January 2019
Orbit: 701 x 703 km, 98.2° (Epoch: 19 February)

Event Time Altitude Azimuth Distance (km) Brightness Sun altitude
Rises 23:11:27 0° 153° (SSE) 3,130 5.5 -22.3°
Reaches altitude 10° 23:14:09 10° 139° (SE) 2,202 4.5 -22.6°
Enters shadow 23:16:47 21° 108° (ESE) 1,567 3.4 -22.9°
